[[{"header":{"parameterUnit":"m.s-1","parameterCategory":1,"la1":30.2991,"la2":30.254,"lo1":-89.0895,"lo2":-89.0444,"dy":0.0017,"dx":0.0017,"nx":28,"ny":28,"refTime":"2023-09-02T21:00:00:Z","depth":0,"parameterNumber":2,"parameterNumberName":"U-component_of_WINDS"},"data":[0,0,0,0,0,0,0,0,0,0,0,0,0,0,0,0,0,0,0,0,0,0,0,0,0,0,0,0,0,0,0,0,0,0,0,0,0,0,0,0,0,0,0,0,0,0,0,0,0,0,0,0,0,0,0,0,0,0,-3.4472,-3.4471,0,-3.4405,-3.4405,-3.4404,-3.4349,-3.4348,-3.4348,-3.4347,-3.4271,-3.4269,-3.4268,0,0,0,0,0,0,0,0,0,0,0,0,0,-3.4545,-3.4544,-3.4472,-3.4471,-3.447,-3.4405,-3.4404,-3.4404,-3.4349,-3.4348,-3.4348,-3.4347,-3.4271,-3.427,-3.4268,0,0,0,0,0,0,0,0,0,0,0,0,0,-3.4499,-3.4544,-3.4472,-3.4435,-3.4431,-3.4406,-3.4404,-3.4403,-3.4349,-3.4348,-3.4347,-3.4347,-3.4272,-3.427,-3.4268,-3.427,0,0,-3.4261,-3.426,0,0,0,0,0,0,0,0,-3.4502,-3.4497,-3.4442,-3.4438,-3.4433,-3.4385,-3.4402,-3.4358,-3.4349,-3.438,-3.4347,-3.4346,-3.4309,-3.4304,-3.4293,-3.4267,-3.4264,-3.426,-3.4259,-3.4258,-3.4258,0,0,0,0,0,0,0,-3.4505,-3.4499,-3.4445,-3.4441,-3.4436,-3.442,-3.4413,-3.4394,-3.435,-3.4377,-3.4373,-3.4366,-3.4306,-3.4295,-3.429,-3.4262,-3.4261,-3.4259,-3.4257,-3.4256,-3.4235,-3.4236,0,0,0,0,0,0,-3.4515,-3.4502,-3.4447,-3.4443,-3.4467,-3.442,-3.4411,-3.4401,-3.435,-3.4341,-3.4367,-3.4364,-3.4299,-3.4293,-3.4288,-3.4287,-3.4258,-3.4256,-3.4255,-3.4235,-3.4236,-3.4237,0,0,0,0,0,0,-3.4517,-3.4511,-3.445,-3.4472,-3.4463,-3.4419,-3.4408,-3.44,-3.4389,-3.4342,-3.4333,-3.4364,-3.4298,-3.4291,-3.4276,-3.4284,-3.4255,-3.4253,-3.4234,-3.4235,-3.4236,-3.4287,0,0,0,0,0,0,-3.4519,-3.4512,-3.4514,-3.4472,-3.4462,-3.4441,-3.4409,-3.4399,-3.4386,-3.4381,-3.4337,-3.4329,-3.4297,-3.4279,-3.4274,-3.428,-3.4251,-3.4233,-3.4234,-3.4236,-3.4285,-3.429,-3.4295,0,0,0,0,0,-3.4522,-3.4529,-3.4514,-3.4508,-3.4464,-3.4442,-3.4436,-3.4402,-3.4387,-3.4387,-3.4358,-3.433,-3.4285,-3.4278,-3.4271,-3.4277,-3.4232,-3.4234,-3.4236,-3.4282,-3.4289,-3.4295,0,0,0,0,0,0,-3.457,-3.4523,-3.4506,-3.45,-3.4476,-3.4433,-3.4433,-3.441,-3.4387,-3.4383,-3.4339,-3.433,-3.4319,-3.4297,-3.4291,-3.4278,-3.4255,-3.4255,-3.4293,-3.4299,-3.4304,-3.4308,-3.4249,0,0,0,0,0,-3.458,-3.4569,-3.4527,-3.4526,-3.4515,-3.4477,-3.4465,-3.4442,-3.4414,-3.4402,-3.4371,-3.4343,-3.4322,-3.4309,-3.4288,-3.4282,-3.4271,-3.4283,-3.4288,-3.4292,-3.4292,-3.4287,-3.4292,-3.4242,-3.4242,-3.4242,0,0,-3.46,-3.4573,-3.4568,-3.4535,-3.4513,-3.4501,-3.4468,-3.4455,-3.4445,-3.4399,-3.4384,-3.4361,-3.4326,-3.4316,-3.431,-3.4297,-3.4304,-3.4294,-3.4298,-3.4296,-3.429,-3.4294,-3.4299,-3.4244,-3.4243,-3.4243,0,0,-3.463,-3.4609,-3.4606,-3.4586,-3.4555,-3.453,-3.4529,-3.449,-3.4474,-3.4458,-3.4424,-3.441,-3.4375,-3.4352,-3.4336,-3.436,-3.4333,-3.4354,-3.4379,-3.4375,-3.4379,-3.4382,-3.439,-3.4393,-3.4354,-3.4355,-3.4355,0,-3.4658,-3.464,-3.4607,-3.4597,-3.4583,-3.4545,-3.4541,-3.4522,-3.4484,-3.4474,-3.4461,-3.4418,-3.4392,-3.4376,-3.4382,-3.437,-3.4367,-3.4358,-3.4382,-3.4384,-3.4387,-3.4394,-3.4397,-3.4357,-3.4357,-3.4357,-3.4356,0,-3.4676,-3.4663,-3.4664,-3.4632,-3.4618,-3.4611,-3.4576,-3.4565,-3.4543,-3.4518,-3.4503,-3.4471,-3.4442,-3.4437,-3.4414,-3.4418,-3.4411,-3.439,-3.4366,-3.4395,-3.44,-3.4403,-3.4361,-3.436,-3.4359,-3.4359,0,0,-3.4732,-3.4684,-3.4684,-3.467,-3.4633,-3.4622,-3.4613,-3.4588,-3.458,-3.4555,-3.4545,-3.4518,-3.45,-3.4481,-3.4455,-3.4452,-3.4472,-3.4432,-3.443,-3.444,-3.4474,-3.4488,-3.4492,-3.4455,-3.4456,-3.4456,-3.4476,0,-3.4755,-3.4739,-3.471,-3.4702,-3.469,-3.4655,-3.4646,-3.4622,-3.46,-3.4584,-3.4557,-3.4539,-3.4516,-3.4505,-3.45,-3.4471,-3.4478,-3.4469,-3.4443,-3.4443,-3.4452,-3.4495,-3.451,-3.4531,-3.4478,-3.4479,-3.4479,0,-3.478,-3.4761,-3.4753,-3.4719,-3.4712,-3.4706,-3.4681,-3.4668,-3.4639,-3.4623,-3.4604,-3.4577,-3.4563,-3.4543,-3.4523,-3.4517,-3.4505,-3.4489,-3.4489,-3.4484,-3.4462,-3.449,-3.4536,-3.4539,-3.4482,-3.4482,-3.4481,0,-3.4821,-3.4793,-3.4785,-3.4773,-3.4733,-3.4729,-3.4712,-3.4683,-3.4671,-3.4648,-3.4639,-3.4615,-3.4601,-3.4581,-3.4547,-3.4536,-3.4531,-3.4507,-3.4515,-3.4516,-3.4514,-3.4514,-3.4558,-3.4509,-3.4509,-3.4509,-3.4508,0,-3.4849,-3.4845,-3.4803,-3.4798,-3.4792,-3.4758,-3.4753,-3.4732,-3.4707,-3.4696,-3.4663,-3.4652,-3.4609,-3.4593,-3.4566,-3.4554,-3.4547,-3.4532,-3.4525,-3.4535,-3.4536,-3.4525,-3.4522,-3.4509,-3.4509,-3.4509,-3.4509,0,-3.4893,-3.4865,-3.4853,-3.4817,-3.4808,-3.4806,-3.4774,-3.4767,-3.4743,-3.4729,-3.4724,-3.4686,-3.4665,-3.4631,-3.4599,-3.4581,-3.4573,-3.4561,-3.4583,-3.4579,-3.4588,-3.4587,-3.4624,-3.4627,-3.4578,-3.4578,-3.4579,0,-3.4912,-3.4909,-3.4874,-3.4866,-3.485,-3.4837,-3.4824,-3.4791,-3.4779,-3.4748,-3.4744,-3.4722,-3.4702,-3.4671,-3.4639,-3.4614,-3.4601,-3.4616,-3.4597,-3.4607,-3.46,-3.46,-3.4599,-3.462,-3.462,-3.4621,-3.4621,0,-3.4949,-3.4936,-3.4921,-3.4901,-3.4888,-3.487,-3.485,-3.4845,-3.4806,-3.4794,-3.4775,-3.476,-3.473,-3.4708,-3.468,-3.4659,-3.4633,-3.4628,-3.4629,-3.4637,-3.465,-3.4643,-3.4594,-3.4627,-3.4626,-3.4626,-3.4626,-3.4625,-3.498,-3.4976,-3.4951,-3.4935,-3.4918,-3.4901,-3.4893,-3.4869,-3.4853,-3.4828,-3.4809,-3.4791,-3.4762,-3.4722,-3.4704,-3.4687,-3.4676,-3.4676,-3.4676,-3.4676,-3.468,-3.4655,-3.4682,-3.4682,-3.4682,-3.4682,-3.4681,0,-3.5015,-3.4998,-3.4984,-3.4959,-3.4946,-3.4927,-3.4905,-3.4895,-3.488,-3.4857,-3.484,-3.4817,-3.4796,-3.4764,-3.474,-3.4733,-3.472,-3.4727,-3.4726,-3.4722,-3.4692,-3.4694,-3.4738,-3.4738,-3.4738,-3.4738,-3.4738,-3.4738,-3.5031,-3.5023,-3.5007,-3.499,-3.4972,-3.4956,-3.4945,-3.4928,-3.491,-3.4887,-3.4871,-3.4851,-3.4824,-3.4798,-3.4777,-3.4768,-3.476,-3.477,-3.4757,-3.4729,-3.4724,-3.4719,-3.4721,-3.4769,-3.4769,-3.4788,-3.4788,-3.4789]},{"header":{"parameterUnit":"m.s-1","parameterCategory":1,"la1":30.2991,"la2":30.254,"lo1":-89.0895,"lo2":-89.0444,"dy":0.0017,"dx":0.0017,"nx":28,"ny":28,"refTime":"2023-09-02T21:00:00:Z","depth":0,"parameterNumber":3,"parameterNumberName":"V-component_of_WINDS"},"data":[0,0,0,0,0,0,0,0,0,0,0,0,0,0,0,0,0,0,0,0,0,0,0,0,0,0,0,0,0,0,0,0,0,0,0,0,0,0,0,0,0,0,0,0,0,0,0,0,0,0,0,0,0,0,0,0,0,0,-4.648,-4.6482,0,-4.665,-4.6651,-4.6653,-4.6649,-4.6646,-4.6644,-4.6642,-4.6805,-4.6812,-4.6818,0,0,0,0,0,0,0,0,0,0,0,0,0,-4.6142,-4.6148,-4.648,-4.6482,-4.6484,-4.6649,-4.6652,-4.6654,-4.6649,-4.6646,-4.6644,-4.6641,-4.6803,-4.6811,-4.6819,0,0,0,0,0,0,0,0,0,0,0,0,0,-4.6298,-4.615,-4.648,-4.6502,-4.6506,-4.6649,-4.6652,-4.6654,-4.665,-4.6646,-4.6643,-4.664,-4.6801,-4.681,-4.682,-4.6948,0,0,-4.6849,-4.6854,0,0,0,0,0,0,0,0,-4.6289,-4.631,-4.6497,-4.6501,-4.6505,-4.6625,-4.6592,-4.6753,-4.6651,-4.6595,-4.6642,-4.6638,-4.6747,-4.6761,-4.68,-4.6956,-4.6963,-4.685,-4.6856,-4.686,-4.6863,0,0,0,0,0,0,0,-4.6278,-4.6303,-4.6547,-4.6499,-4.6505,-4.65,-4.6519,-4.6623,-4.6688,-4.6599,-4.66,-4.662,-4.6749,-4.6791,-4.6804,-4.6965,-4.685,-4.6859,-4.6865,-4.6868,-4.7232,-4.7235,0,0,0,0,0,0,-4.6264,-4.6294,-4.6541,-4.6552,-4.6387,-4.6509,-4.653,-4.659,-4.6687,-4.6699,-4.6623,-4.6619,-4.6776,-4.6793,-4.681,-4.6964,-4.686,-4.6869,-4.6875,-4.7228,-4.7232,-4.7237,0,0,0,0,0,0,-4.6257,-4.6286,-4.6535,-4.6423,-4.6454,-4.6519,-4.6586,-4.6595,-4.6637,-4.6705,-4.6715,-4.6654,-4.6774,-4.6796,-4.6914,-4.697,-4.6874,-4.6883,-4.7223,-4.7229,-4.7234,-4.7276,0,0,0,0,0,0,-4.6247,-4.6284,-4.6336,-4.6424,-4.646,-4.6639,-4.659,-4.6601,-4.6655,-4.6652,-4.6737,-4.6748,-4.6773,-4.6899,-4.6924,-4.6982,-4.689,-4.7218,-4.7226,-4.7233,-4.727,-4.7282,-4.7293,0,0,0,0,0,-4.6235,-4.6339,-4.6338,-4.6368,-4.6527,-4.6643,-4.6663,-4.6692,-4.666,-4.671,-4.6754,-4.6745,-4.6961,-4.6912,-4.6939,-4.7,-4.7215,-4.7224,-4.7232,-4.7265,-4.728,-4.7293,0,0,0,0,0,0,-4.6252,-4.6351,-4.6351,-4.6488,-4.6557,-4.6642,-4.6707,-4.6708,-4.6786,-4.6779,-4.6809,-4.6829,-4.6946,-4.6985,-4.6929,-4.7128,-4.7083,-4.7097,-4.7098,-4.7114,-4.7125,-4.7112,-4.6898,0,0,0,0,0,-4.6272,-4.6361,-4.6441,-4.6554,-4.6589,-4.6642,-4.6693,-4.6711,-4.6782,-4.681,-4.6862,-4.6929,-4.7012,-4.7065,-4.7145,-4.7276,-4.7292,-4.7332,-4.7343,-4.7353,-4.7364,-4.7433,-4.745,-4.7265,-4.7265,-4.7265,0,0,-4.6313,-4.6378,-4.6432,-4.6559,-4.6615,-4.6702,-4.6667,-4.6761,-4.6825,-4.6824,-4.6938,-4.6979,-4.7055,-4.718,-4.7237,-4.7216,-4.7419,-4.7364,-4.7371,-4.7377,-4.7443,-4.7461,-4.7476,-4.7271,-4.727,-4.7269,0,0,-4.6433,-4.6493,-4.6592,-4.6649,-4.6735,-4.677,-4.6794,-4.6879,-4.6906,-4.7023,-4.7023,-4.7098,-4.724,-4.7294,-4.734,-4.7479,-4.7473,-4.7504,-4.7564,-4.7631,-4.7645,-4.7658,-4.7705,-4.7722,-4.7516,-4.7516,-4.7516,0,-4.6472,-4.6608,-4.6642,-4.6738,-4.6791,-4.6798,-4.6896,-4.6949,-4.7055,-4.709,-4.7066,-4.7244,-4.7296,-4.7432,-4.7466,-4.7504,-4.7528,-4.7493,-4.7641,-4.7655,-4.7667,-4.7712,-4.7729,-4.7519,-4.7518,-4.7518,-4.7518,0,-4.665,-4.6744,-4.6813,-4.6919,-4.6981,-4.7077,-4.7123,-4.7181,-4.7192,-4.7228,-4.7345,-4.7408,-4.7499,-4.7533,-4.7544,-4.767,-4.7654,-4.7635,-4.759,-4.7687,-4.7729,-4.7747,-4.7523,-4.7522,-4.7521,-4.752,0,0,-4.6783,-4.6908,-4.6932,-4.698,-4.7075,-4.7146,-4.7241,-4.7334,-4.7382,-4.7454,-4.7532,-4.7652,-4.7636,-4.7688,-4.7705,-4.7764,-4.7867,-4.7738,-4.774,-4.7757,-4.8004,-4.8015,-4.8035,-4.7864,-4.7868,-4.7871,-4.7997,0,-4.6911,-4.7084,-4.7117,-4.7265,-4.735,-4.7357,-4.7439,-4.7504,-4.7541,-4.7615,-4.7653,-4.7737,-4.7711,-4.7742,-4.7801,-4.7842,-4.7916,-4.7834,-4.7932,-4.7936,-4.791,-4.8058,-4.807,-4.8186,-4.8014,-4.8017,-4.8019,0,-4.7082,-4.7162,-4.732,-4.7403,-4.744,-4.7514,-4.76,-4.7673,-4.7745,-4.7767,-4.7826,-4.7836,-4.7931,-4.7883,-4.8012,-4.7955,-4.7997,-4.8023,-4.8028,-4.8036,-4.7981,-4.8066,-4.8225,-4.8241,-4.8046,-4.8044,-4.8042,0,-4.7159,-4.7307,-4.742,-4.746,-4.7561,-4.7612,-4.7655,-4.7725,-4.7778,-4.7853,-4.7887,-4.797,-4.8015,-4.8078,-4.8109,-4.8072,-4.8234,-4.8189,-4.8251,-4.825,-4.8282,-4.8279,-4.8446,-4.8315,-4.8314,-4.8314,-4.8314,0,-4.7296,-4.7392,-4.7456,-4.7525,-4.7631,-4.7667,-4.7769,-4.7811,-4.7873,-4.7947,-4.7958,-4.8027,-4.8065,-4.8138,-4.8163,-4.8264,-4.8284,-4.8301,-4.8306,-4.8299,-4.8296,-4.8325,-4.8316,-4.8319,-4.8318,-4.8317,-4.8316,0,-4.7399,-4.7447,-4.757,-4.7656,-4.768,-4.7753,-4.7825,-4.789,-4.7926,-4.802,-4.8044,-4.8099,-4.8186,-4.8224,-4.833,-4.8346,-4.846,-4.8461,-4.8437,-4.8437,-4.8495,-4.8488,-4.8684,-4.871,-4.8564,-4.8566,-4.8567,0,-4.7482,-4.7556,-4.7651,-4.7703,-4.7749,-4.7833,-4.7888,-4.7925,-4.7981,-4.8069,-4.8123,-4.8211,-4.8283,-4.842,-4.8467,-4.8547,-4.8547,-4.861,-4.8559,-4.8548,-4.8544,-4.8538,-4.8544,-4.8618,-4.862,-4.8621,-4.8622,0,-4.7623,-4.7643,-4.7724,-4.7813,-4.7879,-4.795,-4.8019,-4.806,-4.8108,-4.817,-4.826,-4.8316,-4.8425,-4.8511,-4.8594,-4.8634,-4.8634,-4.8639,-4.8656,-4.8648,-4.863,-4.8637,-4.8459,-4.8633,-4.8632,-4.8631,-4.8631,-4.863,-4.7716,-4.7782,-4.7858,-4.7947,-4.8004,-4.8068,-4.8134,-4.8179,-4.8257,-4.8351,-4.8367,-4.8463,-4.853,-4.8643,-4.8686,-4.8758,-4.8742,-4.8769,-4.8775,-4.878,-4.8782,-4.8621,-4.8774,-4.8774,-4.8773,-4.8773,-4.8773,0,-4.7855,-4.7905,-4.7987,-4.8085,-4.8154,-4.8154,-4.823,-4.8286,-4.8371,-4.8437,-4.8508,-4.861,-4.8693,-4.8747,-4.8829,-4.8876,-4.8878,-4.8896,-4.8891,-4.89,-4.8793,-4.8768,-4.8893,-4.8893,-4.8893,-4.8893,-4.8893,-4.8893,-4.7935,-4.8044,-4.8073,-4.821,-4.8258,-4.8355,-4.8398,-4.8455,-4.8508,-4.8623,-4.8693,-4.8729,-4.8789,-4.8876,-4.895,-4.8964,-4.8991,-4.901,-4.9022,-4.892,-4.8908,-4.8896,-4.8872,-4.9017,-4.9017,-4.9122,-4.9123,-4.9124]}]]